Location: Aciu?a
(46.2833°N, 22.4500°E)
Time: 03:31:44
(UTC+00:00)

Cosmos 44 - Pass Details

Date: 25 October 2021
Orbit: 579 x 782 km, 65.1° (Epoch: 30 November)

Event Time Altitude Azimuth Distance (km) Brightness Sun altitude
Rises 17:30:00 0° 224° (SW) 3,256 7.3 -21.9°
Reaches altitude 10° 17:32:27 10° 227° (SW) 2,333 6.5 -22.4°
Maximum altitude 17:37:48 65° 309° (NW) 854 3.8 -23.3°
Enters shadow 17:40:51 26° 25° (NNE) 1,499 4.8 -23.8°
